GLO2746 SBFL-SBPA

Flight info

Callsign GLO2746
Flight time 0h 43m
Altitude 32000
Route UGREV UN857 TIMVI
Aircraft B737/M-SDE2E3FGHIRWXY/LB1

Departure

Time 2026-04-27 11:47
Airport Hercílio Luz International Airport (SBFL)

Arrival

Time 2026-04-27 12:30
Airport Porto Alegre-Salgado Filho International Airport (SBPA)
Time Latitude Longitude Altitude Speed Heading
2026-04-27 11:19 -27.67217 -48.54453 30 ft 0 kts 31°
2026-04-27 11:38 -27.67218 -48.54454 26 ft 2 kts 31°
2026-04-27 11:39 -27.67238 -48.54469 32 ft 4 kts 47°
2026-04-27 11:39 -27.67251 -48.54493 27 ft 4 kts 90°
2026-04-27 11:39 -27.67248 -48.54509 30 ft 0 kts 122°
2026-04-27 11:42 -27.67250 -48.54506 29 ft 1 kts 122°
2026-04-27 11:42 -27.67259 -48.54490 28 ft 4 kts 122°
2026-04-27 11:42 -27.67276 -48.54457 28 ft 7 kts 122°
2026-04-27 11:42 -27.67301 -48.54400 26 ft 7 kts 91°
2026-04-27 11:43 -27.67267 -48.54364 27 ft 7 kts 33°
2026-04-27 11:43 -27.67226 -48.54336 26 ft 7 kts 30°
2026-04-27 11:43 -27.67211 -48.54292 28 ft 7 kts 111°
2026-04-27 11:43 -27.67247 -48.54224 28 ft 13 kts 121°
2026-04-27 11:44 -27.67307 -48.54113 28 ft 20 kts 121°
2026-04-27 11:44 -27.67385 -48.53967 27 ft 23 kts 121°
2026-04-27 11:44 -27.67471 -48.53809 26 ft 23 kts 122°
2026-04-27 11:44 -27.67555 -48.53657 27 ft 22 kts 123°
2026-04-27 11:45 -27.67638 -48.53511 28 ft 22 kts 121°
2026-04-27 11:45 -27.67692 -48.53412 26 ft 23 kts 122°
2026-04-27 11:45 -27.67782 -48.53258 27 ft 13 kts 123°
2026-04-27 11:45 -27.67806 -48.53167 30 ft 12 kts 69°
2026-04-27 11:46 -27.67735 -48.53098 26 ft 16 kts 37°
2026-04-27 11:46 -27.67640 -48.53135 26 ft 22 kts 303°
2026-04-27 11:46 -27.67455 -48.53479 28 ft 86 kts 301°
2026-04-27 11:46 -27.67044 -48.54238 29 ft 141 kts 302°
2026-04-27 11:47 -27.66489 -48.55251 383 ft 153 kts 301°
2026-04-27 11:47 -27.65928 -48.56294 951 ft 158 kts 300°
2026-04-27 11:47 -27.65382 -48.57342 1618 ft 156 kts 299°
2026-04-27 11:47 -27.64804 -48.58453 2137 ft 176 kts 300°
2026-04-27 11:48 -27.64121 -48.59713 2650 ft 200 kts 301°
2026-04-27 11:48 -27.63372 -48.61114 3133 ft 220 kts 301°
2026-04-27 11:48 -27.62527 -48.62709 3426 ft 253 kts 300°
2026-04-27 11:48 -27.61610 -48.64449 4232 ft 262 kts 301°
2026-04-27 11:49 -27.60643 -48.66209 5209 ft 266 kts 300°
2026-04-27 11:49 -27.59663 -48.67983 6240 ft 267 kts 299°
2026-04-27 11:49 -27.58928 -48.69883 7220 ft 265 kts 275°
2026-04-27 11:49 -27.59137 -48.71929 7752 ft 264 kts 248°
2026-04-27 11:50 -27.60166 -48.73633 7995 ft 269 kts 226°
2026-04-27 11:50 -27.61733 -48.74823 8023 ft 277 kts 206°
2026-04-27 11:50 -27.63547 -48.75561 8052 ft 277 kts 201°
2026-04-27 11:50 -27.65386 -48.76203 8054 ft 276 kts 200°
2026-04-27 11:51 -27.67224 -48.76826 8041 ft 276 kts 200°
2026-04-27 11:51 -27.69057 -48.77451 8047 ft 274 kts 200°
2026-04-27 11:51 -27.72697 -48.78711 8059 ft 273 kts 200°
2026-04-27 11:52 -27.74514 -48.79348 8078 ft 275 kts 200°
2026-04-27 11:52 -27.76371 -48.80005 8554 ft 282 kts 200°
2026-04-27 11:52 -27.78239 -48.80667 9741 ft 281 kts 201°
2026-04-27 11:52 -27.80107 -48.81330 10798 ft 284 kts 202°
2026-04-27 11:53 -27.82053 -48.82027 11343 ft 307 kts 202°
2026-04-27 11:53 -27.84160 -48.82791 11952 ft 325 kts 202°
2026-04-27 11:53 -27.86277 -48.83719 12719 ft 329 kts 213°
2026-04-27 11:53 -27.88283 -48.85059 13331 ft 341 kts 217°
2026-04-27 11:54 -27.90301 -48.86523 14114 ft 348 kts 218°
2026-04-27 11:54 -27.92334 -48.88013 15030 ft 349 kts 219°
2026-04-27 11:54 -27.94386 -48.89507 15930 ft 352 kts 219°
2026-04-27 11:54 -27.96458 -48.91003 16857 ft 355 kts 219°
2026-04-27 11:55 -27.98552 -48.92501 17806 ft 357 kts 219°
2026-04-27 11:55 -28.00663 -48.94004 18615 ft 360 kts 220°
2026-04-27 11:55 -28.02781 -48.95559 19234 ft 366 kts 221°
2026-04-27 11:55 -28.04962 -48.97109 19864 ft 373 kts 221°
2026-04-27 11:56 -28.07173 -48.98660 20611 ft 375 kts 221°
2026-04-27 11:56 -28.09407 -49.00225 21279 ft 379 kts 222°
2026-04-27 11:56 -28.11661 -49.01809 21873 ft 385 kts 222°
2026-04-27 11:56 -28.13953 -49.03422 22444 ft 390 kts 223°
2026-04-27 11:57 -28.16270 -49.05060 23066 ft 394 kts 223°
2026-04-27 11:57 -28.18607 -49.06710 23670 ft 398 kts 224°
2026-04-27 11:57 -28.20967 -49.08381 24136 ft 402 kts 224°
2026-04-27 11:57 -28.23348 -49.10073 24645 ft 405 kts 224°
2026-04-27 11:58 -28.25737 -49.11777 25152 ft 407 kts 224°
2026-04-27 11:58 -28.28152 -49.13486 25645 ft 411 kts 224°
2026-04-27 11:58 -28.30583 -49.15210 26108 ft 414 kts 224°
2026-04-27 11:58 -28.33028 -49.16949 26555 ft 417 kts 224°
2026-04-27 11:59 -28.35492 -49.18703 27021 ft 419 kts 224°
2026-04-27 11:59 -28.37975 -49.20470 27525 ft 422 kts 224°
2026-04-27 11:59 -28.40466 -49.22242 28058 ft 422 kts 224°
2026-04-27 11:59 -28.42968 -49.23990 28699 ft 421 kts 224°
2026-04-27 12:00 -28.45390 -49.25810 29346 ft 412 kts 230°
2026-04-27 12:00 -28.47541 -49.27872 30015 ft 397 kts 237°
2026-04-27 12:00 -28.49405 -49.30138 30639 ft 390 kts 240°
2026-04-27 12:00 -28.51215 -49.32411 31356 ft 385 kts 240°
2026-04-27 12:01 -28.53000 -49.34674 31848 ft 385 kts 241°
2026-04-27 12:01 -28.54788 -49.36943 32024 ft 386 kts 240°
2026-04-27 12:01 -28.56588 -49.39223 32026 ft 388 kts 240°
2026-04-27 12:02 -28.60189 -49.43737 32020 ft 381 kts 240°
2026-04-27 12:02 -28.63726 -49.48174 32019 ft 377 kts 240°
2026-04-27 12:03 -28.67256 -49.52614 32041 ft 379 kts 241°
2026-04-27 12:03 -28.70816 -49.57094 32034 ft 383 kts 240°
2026-04-27 12:04 -28.74388 -49.61587 32078 ft 386 kts 241°
2026-04-27 12:04 -28.77994 -49.66121 32026 ft 385 kts 241°
2026-04-27 12:05 -28.81593 -49.70651 32022 ft 381 kts 242°
2026-04-27 12:05 -28.84532 -49.74359 32023 ft 378 kts 241°
2026-04-27 12:06 -28.88624 -49.79531 32029 ft 378 kts 241°
2026-04-27 12:06 -28.92419 -49.83789 32028 ft 391 kts 234°
2026-04-27 12:07 -28.96705 -49.87701 32025 ft 395 kts 233°
2026-04-27 12:07 -29.00286 -49.90947 32035 ft 395 kts 233°
2026-04-27 12:08 -29.04546 -49.94889 31964 ft 387 kts 235°
2026-04-27 12:08 -29.08774 -49.98800 31379 ft 399 kts 233°
2026-04-27 12:08 -29.10929 -50.00795 30699 ft 399 kts 233°
2026-04-27 12:09 -29.13074 -50.02799 29872 ft 399 kts 233°
2026-04-27 12:09 -29.15220 -50.04815 28924 ft 399 kts 233°
2026-04-27 12:09 -29.17353 -50.06813 28280 ft 393 kts 233°
2026-04-27 12:09 -29.19455 -50.08782 27609 ft 386 kts 234°
2026-04-27 12:10 -29.21486 -50.10742 27033 ft 379 kts 233°
2026-04-27 12:10 -29.23529 -50.12635 26569 ft 374 kts 233°
2026-04-27 12:10 -29.25527 -50.14479 26336 ft 364 kts 233°
2026-04-27 12:10 -29.27496 -50.16318 26106 ft 370 kts 233°
2026-04-27 12:11 -29.29501 -50.18210 25578 ft 375 kts 232°
2026-04-27 12:11 -29.31507 -50.20097 25022 ft 371 kts 232°
2026-04-27 12:11 -29.33492 -50.21961 24380 ft 368 kts 232°
2026-04-27 12:11 -29.35468 -50.23815 23682 ft 366 kts 232°
2026-04-27 12:12 -29.37376 -50.25704 23011 ft 361 kts 232°
2026-04-27 12:12 -29.39319 -50.27516 22300 ft 358 kts 231°
2026-04-27 12:12 -29.41090 -50.29446 21577 ft 346 kts 237°
2026-04-27 12:12 -29.42653 -50.31504 20936 ft 339 kts 239°
2026-04-27 12:13 -29.44142 -50.33576 20322 ft 335 kts 240°
2026-04-27 12:13 -29.45611 -50.35631 19721 ft 332 kts 239°
2026-04-27 12:13 -29.47076 -50.37664 19083 ft 330 kts 239°
2026-04-27 12:13 -29.48544 -50.39680 18445 ft 328 kts 238°
2026-04-27 12:14 -29.50013 -50.41682 17728 ft 328 kts 238°
2026-04-27 12:14 -29.51488 -50.43661 17137 ft 324 kts 236°
2026-04-27 12:14 -29.52992 -50.45560 16496 ft 319 kts 235°
2026-04-27 12:14 -29.54496 -50.47417 15888 ft 317 kts 234°
2026-04-27 12:15 -29.55994 -50.49268 15272 ft 316 kts 235°
2026-04-27 12:15 -29.57491 -50.51117 14635 ft 315 kts 234°
2026-04-27 12:15 -29.58984 -50.52943 14007 ft 312 kts 233°
2026-04-27 12:15 -29.60452 -50.54759 13371 ft 309 kts 234°
2026-04-27 12:16 -29.61896 -50.56567 12741 ft 305 kts 234°
2026-04-27 12:16 -29.63320 -50.58349 12166 ft 301 kts 233°
2026-04-27 12:16 -29.64730 -50.60113 11548 ft 297 kts 234°
2026-04-27 12:16 -29.66113 -50.61851 10986 ft 290 kts 233°
2026-04-27 12:17 -29.67432 -50.63504 10610 ft 275 kts 234°
2026-04-27 12:17 -29.68678 -50.65058 10465 ft 255 kts 234°
2026-04-27 12:17 -29.69838 -50.66509 10296 ft 238 kts 234°
2026-04-27 12:17 -29.70923 -50.67868 10188 ft 225 kts 235°
2026-04-27 12:18 -29.71951 -50.69159 10093 ft 213 kts 235°
2026-04-27 12:18 -29.72939 -50.70403 9839 ft 213 kts 236°
2026-04-27 12:18 -29.73948 -50.71682 9527 ft 221 kts 236°
2026-04-27 12:18 -29.74999 -50.73013 9183 ft 227 kts 235°
2026-04-27 12:19 -29.76062 -50.74352 8818 ft 226 kts 235°
2026-04-27 12:19 -29.77124 -50.75689 8441 ft 226 kts 235°
2026-04-27 12:19 -29.78176 -50.77012 8093 ft 224 kts 236°
2026-04-27 12:19 -29.79226 -50.78332 7751 ft 223 kts 236°
2026-04-27 12:20 -29.80275 -50.79652 7395 ft 223 kts 236°
2026-04-27 12:20 -29.81321 -50.80969 7049 ft 223 kts 236°
2026-04-27 12:20 -29.82365 -50.82285 6707 ft 222 kts 236°
2026-04-27 12:20 -29.83408 -50.83599 6353 ft 222 kts 236°
2026-04-27 12:21 -29.84451 -50.84913 6001 ft 222 kts 236°
2026-04-27 12:21 -29.85488 -50.86220 5603 ft 219 kts 236°
2026-04-27 12:21 -29.86495 -50.87481 5322 ft 211 kts 236°
2026-04-27 12:21 -29.87474 -50.88742 5007 ft 210 kts 236°
2026-04-27 12:22 -29.88447 -50.89965 4695 ft 203 kts 235°
2026-04-27 12:22 -29.89390 -50.91148 4364 ft 198 kts 234°
2026-04-27 12:22 -29.90323 -50.92284 4088 ft 193 kts 227°
2026-04-27 12:22 -29.91491 -50.93027 3894 ft 193 kts 210°
2026-04-27 12:23 -29.92715 -50.93559 3700 ft 184 kts 211°
2026-04-27 12:23 -29.93889 -50.94078 3510 ft 176 kts 211°
2026-04-27 12:23 -29.95014 -50.94576 3342 ft 166 kts 212°
2026-04-27 12:23 -29.96044 -50.95034 3187 ft 155 kts 212°
2026-04-27 12:24 -29.97024 -50.95469 3035 ft 144 kts 212°
2026-04-27 12:24 -29.97951 -50.95884 2905 ft 142 kts 212°
2026-04-27 12:24 -29.98855 -50.96290 2786 ft 142 kts 211°
2026-04-27 12:24 -29.99594 -50.96927 2650 ft 128 kts 247°
2026-04-27 12:25 -29.99758 -50.97869 2553 ft 117 kts 270°
2026-04-27 12:25 -29.99754 -50.98816 2422 ft 119 kts 269°
2026-04-27 12:25 -29.99752 -50.99767 2341 ft 120 kts 269°
2026-04-27 12:25 -29.99744 -51.00731 2214 ft 120 kts 270°
2026-04-27 12:26 -29.99732 -51.01705 2088 ft 123 kts 271°
2026-04-27 12:26 -29.99720 -51.02682 1981 ft 121 kts 271°
2026-04-27 12:26 -29.99706 -51.03615 1870 ft 114 kts 272°
2026-04-27 12:26 -29.99690 -51.04511 1763 ft 110 kts 271°
2026-04-27 12:27 -29.99675 -51.05382 1684 ft 108 kts 271°
2026-04-27 12:27 -29.99660 -51.06265 1537 ft 110 kts 272°
2026-04-27 12:27 -29.99646 -51.07126 1392 ft 104 kts 272°
2026-04-27 12:27 -29.99632 -51.07953 1266 ft 104 kts 272°
2026-04-27 12:28 -29.99617 -51.08798 1135 ft 106 kts 272°
2026-04-27 12:28 -29.99602 -51.09652 994 ft 107 kts 274°
2026-04-27 12:28 -29.99576 -51.10515 840 ft 108 kts 273°
2026-04-27 12:28 -29.99568 -51.11348 670 ft 100 kts 271°
2026-04-27 12:29 -29.99570 -51.12120 575 ft 92 kts 275°
2026-04-27 12:29 -29.99539 -51.12855 450 ft 97 kts 275°
2026-04-27 12:29 -29.99517 -51.13660 397 ft 103 kts 272°
2026-04-27 12:29 -29.99506 -51.14507 315 ft 106 kts 273°
2026-04-27 12:30 -29.99497 -51.15360 203 ft 107 kts 272°
2026-04-27 12:30 -29.99480 -51.16177 59 ft 97 kts 271°
2026-04-27 12:30 -29.99466 -51.16876 16 ft 67 kts 271°
2026-04-27 12:30 -29.99460 -51.17214 17 ft 31 kts 271°
2026-04-27 12:31 -29.99454 -51.17451 18 ft 29 kts 271°
2026-04-27 12:31 -29.99452 -51.17663 21 ft 18 kts 277°
2026-04-27 12:31 -29.99404 -51.17704 20 ft 8 kts
2026-04-27 12:31 -29.99346 -51.17698 18 ft 9 kts
2026-04-27 12:32 -29.99286 -51.17695 20 ft 8 kts 356°
2026-04-27 12:32 -29.99230 -51.17699 20 ft 8 kts
2026-04-27 12:32 -29.99179 -51.17714 18 ft 8 kts 316°
2026-04-27 12:32 -29.99156 -51.17759 20 ft 6 kts 334°
2026-04-27 12:33 -29.99115 -51.17758 18 ft 6 kts
2026-04-27 12:33 -29.99087 -51.17767 18 ft 3 kts 344°
2026-04-27 12:33 -29.99081 -51.17769 18 ft 0 kts 344°